Tracking 24122 objects as of 9-Dec-2021
HD Live streaming from Space Station
objects crossing your sky now

OPS 4682 DEB

Track OPS 4682 DEB now!
10-day predictions


NORAD ID: 26733
Int'l Code: 1965-027BG
Perigee: 1,268.5 km
Apogee: 1,318.9 km
Inclination: 90.3 °
Period: 111.3 minutes
Semi major axis: 7664 km
RCS: 0.0115 m2 (small)
Launch date: April 3, 1965
Source: United States (US)
Launch site: AIR FORCE WESTERN TEST RANGE (AFWTR)

Note: This is SATELLITE DEBRIS
aabbcc
Your satellite tracking list
Your tracking list is empty




NASA's NSSDC Master Catalog

Two Line Element Set (TLE):
1 26733U 65027BG  21342.73770397  .00000002  00000-0 -20053-4 0  9993
2 26733  90.2700 328.7247 0032878 226.8141 309.0996 12.93773064984331
Source of the keplerian elements: AFSPC